ASA807 KLAS-PHNL

Flight info

Callsign ASA807
Flight time N/A
Altitude 40000
Route JOHKR5 KENNO OAK BEBOP R464 BITTA MAGGI3
Aircraft A332/H-SDE3GHIJ2J3J5M1RVWXY/LB2D1

Departure

Time N/A
Airport Harry Reid International Airport (KLAS)

Arrival

Time 2026-05-06 01:26
Airport Daniel K. Inouye International Airport (PHNL)
Time Latitude Longitude Altitude Speed Heading
2026-05-06 00:27 24.80794 -153.40585 40091 ft 409 kts 240°
2026-05-06 00:27 24.77669 -153.45779 40092 ft 410 kts 240°
2026-05-06 00:28 24.74516 -153.51014 40093 ft 411 kts 240°
2026-05-06 00:28 24.71345 -153.56273 40091 ft 411 kts 240°
2026-05-06 00:29 24.68180 -153.61516 40087 ft 411 kts 239°
2026-05-06 00:29 24.65043 -153.66705 40091 ft 410 kts 239°
2026-05-06 00:30 24.61884 -153.71928 40090 ft 409 kts 239°
2026-05-06 00:30 24.58724 -153.77147 40091 ft 410 kts 239°
2026-05-06 00:31 24.55560 -153.82364 40086 ft 404 kts 239°
2026-05-06 00:31 24.52502 -153.87396 40092 ft 401 kts 239°
2026-05-06 00:32 24.49370 -153.92563 40091 ft 411 kts 239°
2026-05-06 00:32 24.46186 -153.97800 40085 ft 412 kts 239°
2026-05-06 00:33 24.43008 -154.03015 40087 ft 409 kts 239°
2026-05-06 00:33 24.39866 -154.08167 40087 ft 408 kts 239°
2026-05-06 00:34 24.36692 -154.13372 40080 ft 411 kts 239°
2026-05-06 00:34 24.33489 -154.18594 40081 ft 412 kts 239°
2026-05-06 00:35 24.30276 -154.23800 40080 ft 412 kts 239°
2026-05-06 00:35 24.27062 -154.29005 40081 ft 412 kts 239°
2026-05-06 00:36 24.23847 -154.34210 40079 ft 411 kts 239°
2026-05-06 00:36 24.20658 -154.39368 40079 ft 412 kts 239°
2026-05-06 00:37 24.17401 -154.44635 40078 ft 422 kts 239°
2026-05-06 00:37 24.14650 -154.49075 40077 ft 423 kts 239°
2026-05-06 00:38 24.10804 -154.55273 40077 ft 423 kts 239°
2026-05-06 00:38 24.08051 -154.59708 40078 ft 423 kts 239°
2026-05-06 00:39 24.04739 -154.65036 40078 ft 423 kts 239°
2026-05-06 00:39 24.01443 -154.70334 40075 ft 422 kts 239°
2026-05-06 00:40 23.98138 -154.75640 40072 ft 421 kts 239°
2026-05-06 00:40 23.94843 -154.80927 40074 ft 424 kts 239°
2026-05-06 00:41 23.91497 -154.86290 40072 ft 424 kts 239°
2026-05-06 00:41 23.88205 -154.91556 40072 ft 421 kts 239°
2026-05-06 00:42 23.84899 -154.96843 40072 ft 421 kts 239°
2026-05-06 00:42 23.81593 -155.02124 40077 ft 422 kts 239°
2026-05-06 00:43 23.78282 -155.07408 40070 ft 422 kts 239°
2026-05-06 00:43 23.74961 -155.12700 40069 ft 421 kts 239°
2026-05-06 00:44 23.71659 -155.17958 40071 ft 421 kts 239°
2026-05-06 00:44 23.68344 -155.23231 40072 ft 421 kts 238°
2026-05-06 00:45 23.65026 -155.28504 40070 ft 421 kts 238°
2026-05-06 00:45 23.61730 -155.33737 40070 ft 422 kts 238°
2026-05-06 00:46 23.58397 -155.39022 40067 ft 423 kts 238°
2026-05-06 00:46 23.55054 -155.44307 40063 ft 423 kts 237°
2026-05-06 00:47 23.51053 -155.49037 40064 ft 429 kts 223°
2026-05-06 00:47 23.46120 -155.52760 40063 ft 433 kts 218°
2026-05-06 00:48 23.41116 -155.56347 40067 ft 433 kts 218°
2026-05-06 00:48 23.36089 -155.59962 40062 ft 433 kts 218°
2026-05-06 00:49 23.31059 -155.63586 40066 ft 433 kts 218°
2026-05-06 00:49 23.26025 -155.67213 40060 ft 434 kts 218°
2026-05-06 00:50 23.20982 -155.70842 40057 ft 434 kts 218°
2026-05-06 00:50 23.15939 -155.74469 40054 ft 434 kts 218°
2026-05-06 00:51 23.10928 -155.78069 40061 ft 434 kts 218°
2026-05-06 00:51 23.05887 -155.81687 40044 ft 434 kts 218°
2026-05-06 00:52 23.00843 -155.85305 40056 ft 434 kts 218°
2026-05-06 00:52 22.95804 -155.88915 40055 ft 433 kts 218°
2026-05-06 00:53 22.90766 -155.92522 40057 ft 433 kts 218°
2026-05-06 00:53 22.85724 -155.96128 40063 ft 434 kts 218°
2026-05-06 00:54 22.80705 -155.99715 40050 ft 434 kts 218°
2026-05-06 00:54 22.75647 -156.03325 40057 ft 434 kts 218°
2026-05-06 00:55 22.70601 -156.06924 40057 ft 434 kts 218°
2026-05-06 00:55 22.65584 -156.10500 40053 ft 434 kts 218°
2026-05-06 00:56 22.60537 -156.14094 40032 ft 434 kts 218°
2026-05-06 00:56 22.58002 -156.15898 39821 ft 434 kts 218°
2026-05-06 00:56 22.55478 -156.17693 39584 ft 434 kts 218°
2026-05-06 00:56 22.52981 -156.19468 39351 ft 435 kts 218°
2026-05-06 00:57 22.50442 -156.21273 39090 ft 436 kts 218°
2026-05-06 00:57 22.47901 -156.23078 38862 ft 437 kts 218°
2026-05-06 00:57 22.45354 -156.24886 38614 ft 438 kts 218°
2026-05-06 00:57 22.42800 -156.26698 38349 ft 440 kts 218°
2026-05-06 00:58 22.40235 -156.28518 38081 ft 441 kts 218°
2026-05-06 00:58 22.37667 -156.30339 37814 ft 442 kts 218°
2026-05-06 00:58 22.35093 -156.32163 37547 ft 443 kts 218°
2026-05-06 00:58 22.32598 -156.34106 37148 ft 440 kts 225°
2026-05-06 00:59 22.30458 -156.36440 36658 ft 436 kts 232°
2026-05-06 00:59 22.28521 -156.38909 36197 ft 437 kts 233°
2026-05-06 00:59 22.26581 -156.41450 35738 ft 439 kts 234°
2026-05-06 00:59 22.24631 -156.44006 35213 ft 441 kts 233°
2026-05-06 01:00 22.22672 -156.46565 34687 ft 443 kts 233°
2026-05-06 01:00 22.20698 -156.49139 34076 ft 446 kts 233°
2026-05-06 01:00 22.18709 -156.51727 33380 ft 448 kts 233°
2026-05-06 01:00 22.16714 -156.54320 32742 ft 450 kts 233°
2026-05-06 01:01 22.14731 -156.56894 32097 ft 453 kts 233°
2026-05-06 01:01 22.12684 -156.59550 31534 ft 456 kts 233°
2026-05-06 01:01 22.10666 -156.62168 31056 ft 460 kts 233°
2026-05-06 01:01 22.08612 -156.64830 30565 ft 462 kts 233°
2026-05-06 01:02 22.06541 -156.67512 30048 ft 464 kts 232°
2026-05-06 01:02 22.04472 -156.70191 29485 ft 466 kts 232°
2026-05-06 01:02 22.02388 -156.72888 28946 ft 468 kts 232°
2026-05-06 01:02 22.00299 -156.75589 28412 ft 470 kts 232°
2026-05-06 01:03 21.98223 -156.78272 27867 ft 471 kts 232°
2026-05-06 01:03 21.96119 -156.80990 27223 ft 468 kts 232°
2026-05-06 01:03 21.94060 -156.83646 26867 ft 454 kts 232°
2026-05-06 01:03 21.92052 -156.86235 26323 ft 446 kts 232°
2026-05-06 01:04 21.90104 -156.88748 25793 ft 439 kts 232°
2026-05-06 01:04 21.88161 -156.91254 25306 ft 431 kts 232°
2026-05-06 01:04 21.86251 -156.93716 24810 ft 425 kts 232°
2026-05-06 01:04 21.84367 -156.96145 24334 ft 418 kts 232°
2026-05-06 01:05 21.82508 -156.98543 23833 ft 414 kts 232°
2026-05-06 01:05 21.80662 -157.00924 23326 ft 413 kts 232°
2026-05-06 01:05 21.78824 -157.03295 22832 ft 411 kts 232°
2026-05-06 01:05 21.77016 -157.05625 22365 ft 408 kts 232°
2026-05-06 01:06 21.75199 -157.07966 21885 ft 406 kts 232°
2026-05-06 01:06 21.73390 -157.10296 21421 ft 404 kts 232°
2026-05-06 01:06 21.71589 -157.12614 20953 ft 402 kts 232°
2026-05-06 01:06 21.69798 -157.14918 20497 ft 400 kts 232°
2026-05-06 01:07 21.68019 -157.17206 20025 ft 397 kts 232°
2026-05-06 01:07 21.66271 -157.19453 19568 ft 395 kts 232°
2026-05-06 01:07 21.64509 -157.21717 19104 ft 393 kts 232°
2026-05-06 01:07 21.62759 -157.23965 18653 ft 390 kts 232°
2026-05-06 01:08 21.61017 -157.26200 18160 ft 388 kts 232°
2026-05-06 01:08 21.59289 -157.28418 17683 ft 385 kts 231°
2026-05-06 01:08 21.57570 -157.30623 17168 ft 383 kts 231°
2026-05-06 01:08 21.55886 -157.32783 16701 ft 381 kts 231°
2026-05-06 01:09 21.54186 -157.34962 16246 ft 379 kts 231°
2026-05-06 01:09 21.52497 -157.37126 15809 ft 377 kts 231°
2026-05-06 01:09 21.50810 -157.39287 15350 ft 375 kts 231°
2026-05-06 01:09 21.49141 -157.41423 14881 ft 373 kts 231°
2026-05-06 01:10 21.47473 -157.43557 14427 ft 372 kts 230°
2026-05-06 01:10 21.45835 -157.45653 14002 ft 370 kts 230°
2026-05-06 01:10 21.44180 -157.47770 13521 ft 368 kts 230°
2026-05-06 01:10 21.42534 -157.49873 13041 ft 365 kts 230°
2026-05-06 01:11 21.40899 -157.51961 12594 ft 363 kts 230°
2026-05-06 01:11 21.39278 -157.54031 12149 ft 361 kts 230°
2026-05-06 01:11 21.37669 -157.56084 11711 ft 356 kts 230°
2026-05-06 01:11 21.36085 -157.58105 11314 ft 350 kts 230°
2026-05-06 01:12 21.34568 -157.60039 11085 ft 336 kts 230°
2026-05-06 01:12 21.33091 -157.61921 10787 ft 325 kts 230°
2026-05-06 01:12 21.31656 -157.63750 10572 ft 313 kts 230°
2026-05-06 01:12 21.30275 -157.65508 10352 ft 301 kts 230°
2026-05-06 01:13 21.28946 -157.67199 10161 ft 291 kts 230°
2026-05-06 01:13 21.27661 -157.68848 9857 ft 286 kts 231°
2026-05-06 01:13 21.26664 -157.70677 9499 ft 284 kts 250°
2026-05-06 01:13 21.26256 -157.72709 9210 ft 283 kts 261°
2026-05-06 01:14 21.25870 -157.76916 8594 ft 283 kts 264°
2026-05-06 01:14 21.25690 -157.79012 8281 ft 281 kts 263°
2026-05-06 01:14 21.25508 -157.81069 7969 ft 278 kts 263°
2026-05-06 01:15 21.25323 -157.83119 7664 ft 274 kts 264°
2026-05-06 01:15 21.25139 -157.85153 7374 ft 274 kts 264°
2026-05-06 01:15 21.24951 -157.87196 7281 ft 276 kts 263°
2026-05-06 01:15 21.24761 -157.89244 7172 ft 276 kts 264°
2026-05-06 01:16 21.24571 -157.91296 7049 ft 276 kts 264°
2026-05-06 01:16 21.24381 -157.93343 6870 ft 275 kts 263°
2026-05-06 01:16 21.24192 -157.95383 6569 ft 275 kts 263°
2026-05-06 01:16 21.24002 -157.97430 6313 ft 276 kts 263°
2026-05-06 01:17 21.23836 -157.99476 6053 ft 275 kts 267°
2026-05-06 01:17 21.23801 -158.01508 5824 ft 267 kts 269°
2026-05-06 01:17 21.23801 -158.03455 5673 ft 256 kts 269°
2026-05-06 01:17 21.23803 -158.05330 5554 ft 247 kts 269°
2026-05-06 01:18 21.23805 -158.07130 5478 ft 237 kts 270°
2026-05-06 01:18 21.23807 -158.08866 5351 ft 229 kts 269°
2026-05-06 01:18 21.23810 -158.10550 5141 ft 225 kts 270°
2026-05-06 01:18 21.23811 -158.12222 4956 ft 223 kts 270°
2026-05-06 01:19 21.23810 -158.13862 4828 ft 222 kts 270°
2026-05-06 01:19 21.23809 -158.15518 4713 ft 222 kts 270°
2026-05-06 01:19 21.23810 -158.17172 4549 ft 220 kts 270°
2026-05-06 01:19 21.23827 -158.18805 4434 ft 218 kts 274°
2026-05-06 01:20 21.24218 -158.20374 4278 ft 221 kts 298°
2026-05-06 01:20 21.25274 -158.21556 4184 ft 223 kts 327°
2026-05-06 01:20 21.26761 -158.22010 4050 ft 226 kts 355°
2026-05-06 01:20 21.28346 -158.21858 3754 ft 233 kts 12°
2026-05-06 01:21 21.29845 -158.21183 3471 ft 233 kts 30°
2026-05-06 01:21 21.31101 -158.20077 3110 ft 234 kts 47°
2026-05-06 01:21 21.31967 -158.18684 3006 ft 221 kts 64°
2026-05-06 01:21 21.32443 -158.17186 3003 ft 205 kts 78°
2026-05-06 01:22 21.32555 -158.15692 3006 ft 199 kts 90°
2026-05-06 01:22 21.32542 -158.14208 3010 ft 199 kts 90°
2026-05-06 01:22 21.32534 -158.12720 3007 ft 200 kts 90°
2026-05-06 01:22 21.32526 -158.11235 3008 ft 198 kts 91°
2026-05-06 01:23 21.32521 -158.09757 2838 ft 197 kts 91°
2026-05-06 01:23 21.32520 -158.08289 2563 ft 196 kts 90°
2026-05-06 01:23 21.32523 -158.06823 2289 ft 196 kts 90°
2026-05-06 01:23 21.32524 -158.05371 2031 ft 197 kts 90°
2026-05-06 01:24 21.32524 -158.03923 1768 ft 190 kts 90°
2026-05-06 01:24 21.32522 -158.02540 1515 ft 180 kts 91°
2026-05-06 01:24 21.32522 -158.01652 1367 ft 171 kts 90°
2026-05-06 01:24 21.32522 -158.00441 1153 ft 156 kts 90°
2026-05-06 01:25 21.32523 -157.99328 949 ft 143 kts 90°
2026-05-06 01:25 21.32522 -157.98286 773 ft 138 kts 91°
2026-05-06 01:25 21.32523 -157.97264 595 ft 136 kts 94°
2026-05-06 01:25 21.32524 -157.96241 409 ft 140 kts 94°
2026-05-06 01:26 21.32526 -157.95196 238 ft 139 kts 95°
2026-05-06 01:26 21.32526 -157.94177 57 ft 137 kts 94°
2026-05-06 01:26 21.32524 -157.93230 28 ft 102 kts 90°
2026-05-06 01:26 21.32526 -157.92763 28 ft 39 kts 90°
2026-05-06 01:27 21.32525 -157.92504 28 ft 26 kts 90°
2026-05-06 01:27 21.32529 -157.92341 28 ft 17 kts 77°
2026-05-06 01:27 21.32602 -157.92258 28 ft 15 kts
2026-05-06 01:27 21.32684 -157.92291 28 ft 13 kts 289°
2026-05-06 01:28 21.32691 -157.92391 28 ft 15 kts 274°
2026-05-06 01:28 21.32692 -157.92510 28 ft 17 kts 270°
2026-05-06 01:28 21.32692 -157.92641 28 ft 19 kts 269°
2026-05-06 01:28 21.32723 -157.92777 28 ft 19 kts 308°
2026-05-06 01:29 21.32847 -157.92811 28 ft 20 kts
2026-05-06 01:29 21.32962 -157.92732 28 ft 13 kts 46°
2026-05-06 01:29 21.33034 -157.92656 28 ft 16 kts 45°
2026-05-06 01:29 21.33129 -157.92586 28 ft 18 kts 23°
2026-05-06 01:30 21.33258 -157.92554 28 ft 20 kts
2026-05-06 01:30 21.33393 -157.92534 28 ft 17 kts
2026-05-06 01:30 21.33498 -157.92561 28 ft 17 kts 326°
2026-05-06 01:30 21.33605 -157.92621 28 ft 18 kts 351°
2026-05-06 01:31 21.33732 -157.92594 28 ft 20 kts 27°
2026-05-06 01:31 21.33779 -157.92464 28 ft 20 kts 100°
2026-05-06 01:31 21.33762 -157.92372 28 ft 5 kts 112°
2026-05-06 01:31 21.33739 -157.92362 28 ft 7 kts 166°
2026-05-06 01:32 21.33698 -157.92359 28 ft 3 kts 179°
2026-05-06 01:32 21.33680 -157.92359 28 ft 2 kts 179°
2026-05-06 01:32 21.33677 -157.92359 28 ft 0 kts 179°